Weather in Viedma

Argentina     40°48′55″S   63°00′14″W
temp.,
°C
wind,
m/s
gust,
m/s
humid.,
%
clouds,
%
prec.,
mm/h
press.,
hPa
HPBL,
m
26 february, fri
fri2600:00+21ne611600 0.0 1009233
03:00+21ne510540 0.0 1007200
06:00+21nne48440 0.0 1007138
09:00+27nnw58183 0.0 1009419
12:00+36nnw7810100 0.0 10091067
15:00+40n67860 0.0 10084454
18:00+37ne1011110 0.0 10071989
21:00+28ne8162625 0.0 1010329
27 february, sat
sat2700:00+25nne41142100 0.0 1012412
03:00+24nne5946100 0.0 1012198
06:00+26n8162793 0.0 1014367
09:00+29n9142396 0.2 1015748
12:00+35n10111644 0.0 10151754
15:00+38nne9101322 0.0 10143631
18:00+34ne1214170 0.0 10121493
21:00+26ne1118430 0.0 1012421
28 february, sun
sun2800:00+26nne8163812 0.0 1013419
03:00+27nne10182639 0.0 1013710
06:00+23nne8164033 0.0 1014538
09:00+25n9144831 0.0 1013705
12:00+32n8102964 0.0 10121238
15:00+37n791757 0.0 10092988
18:00+33ne1112290 0.0 1007987
21:00+26ne1017490 0.0 1007458
1 march, mon
mon100:00+27nne7154019 0.0 1007426
03:00+25nne5144960 1.8 1007595
06:00+26nnw111837100 0.0 1007540
09:00+26nnw9144393 0.8 1007496
12:00+31nw7935100 0.9 1007857
15:00+34nnw462898 1.3 10051725
18:00+37nnw472344 0.0 10043065
21:00+29nw254565 0.6 1005178
2 march, tue
tue200:00+25n125885 0.3 100644
03:00+24wnw456984 3.4 1006105
06:00+22sse4677100 0.9 1008221
09:00+22se91176100 0.9 1010556
12:00+23se91263100 0.0 1011670
15:00+25se895795 0.0 1012793
18:00+22se911625 0.0 1012714
21:00+18se812778 0.1 1015676